Date,TemperatureHighF,TemperatureAvgF,TemperatureLowF,DewpointHighF,DewpointAvgF,DewpointLowF,HumidityHigh,HumidityAvg,HumidityLow,PressureMaxIn,PressureMinIn,WindSpeedMaxMPH,WindSpeedAvgMPH,GustSpeedMaxMPH,PrecipitationSumIn
2013-1-1,45.9,43.1,40.1,45.9,37.8,12.8,100,85,30,30.04,29.92,4,0,4,0.29
2013-1-2,41.9,34.6,32.1,41.9,34.5,32.1,100,99,96,30.04,29.89,5,0,6,0.10
2013-1-3,33.1,30.4,25.9,32.9,29.0,16.0,100,95,61,30.19,30.00,3,0,3,0.00
2013-1-4,35.9,26.5,21.3,22.8,20.2,17.2,95,77,52,30.25,30.15,6,0,6,0.00
2013-1-5,48.4,33.1,20.3,29.2,20.5,14.8,90,63,26,30.25,30.12,4,0,4,0.00
2013-1-6,47.8,36.1,30.5,36.3,31.7,22.7,100,85,38,30.15,29.98,6,1,6,0.01
2013-1-7,46.6,33.5,24.4,28.2,23.7,18.2,96,70,37,30.27,30.12,5,0,5,0.00
2013-1-8,51.2,38.9,28.9,39.8,30.0,18.3,89,70,58,30.30,30.21,4,0,4,0.00
2013-1-9,55.7,51.0,42.2,51.9,48.0,37.9,96,89,78,30.42,30.27,3,0,3,0.00
2013-1-10,63.0,53.0,47.3,52.9,49.0,47.1,100,87,59,30.42,30.24,5,1,5,0.00
2013-1-11,58.8,54.6,48.5,56.9,53.8,48.5,100,97,88,30.25,30.09,5,1,5,0.18
2013-1-12,66.8,59.9,54.1,58.2,53.9,41.3,100,81,48,30.19,30.08,5,1,5,0.06
2013-1-13,63.8,59.1,55.4,55.8,50.6,47.4,100,73,65,30.12,30.03,10,1,10,0.08
2013-1-14,55.8,51.1,42.3,55.8,51.1,42.3,100,100,100,30.16,30.03,6,1,6,1.67
2013-1-15,53.5,49.5,43.2,53.5,49.5,43.2,100,100,100,30.10,29.94,4,1,4,2.17
2013-1-16,58.2,51.6,47.5,55.7,50.4,47.0,100,96,71,30.01,29.90,5,1,5,0.43
2013-1-17,48.7,38.0,27.3,48.7,38.0,27.3,100,100,100,30.15,29.80,5,1,5,1.43
2013-1-18,34.8,28.2,22.5,31.3,25.5,18.3,100,90,64,30.36,30.15,0,0,0,0.01
2013-1-19,46.2,34.7,26.1,27.5,22.4,14.5,90,64,31,30.31,30.08,6,1,6,0.01
2013-1-20,50.3,38.5,33.1,31.3,24.9,18.3,73,58,35,30.09,30.01,5,1,6,0.35
2013-1-21,45.1,34.5,27.8,27.4,20.5,11.2,85,57,35,30.04,29.93,7,1,7,0.00
2013-1-22,29.2,21.6,14.1,12.9,6.3,-1.0,67,52,31,30.08,29.93,5,1,5,0.00
2013-1-23,39.9,29.6,18.0,24.4,16.6,3.0,75,58,48,30.14,29.98,6,1,8,0.00
2013-1-24,38.0,28.4,20.0,27.9,14.4,2.6,71,56,32,30.22,29.94,11,1,11,0.00
2013-1-25,43.5,30.7,17.6,39.9,25.6,7.5,100,81,61,30.21,29.92,16,2,16,0.22
2013-1-26,42.5,32.9,27.3,35.6,26.3,19.0,100,79,39,30.21,30.01,4,1,4,0.00
2013-1-27,46.0,34.3,25.1,32.9,27.0,20.3,92,75,53,30.31,30.21,3,1,3,0.00
2013-1-28,56.9,46.1,32.5,46.5,38.9,28.1,94,76,59,30.29,30.19,11,1,11,0.00
2013-1-29,63.4,54.5,46.4,55.6,46.7,38.7,99,75,58,30.20,29.98,8,1,8,0.02
2013-1-30,63.9,54.0,37.5,57.4,50.5,34.7,100,88,71,29.98,29.52,12,2,14,2.29
2013-1-31,37.5,29.6,23.6,34.7,19.6,13.7,98,67,45,29.92,29.57,13,4,13,0.00